#timestamp,LO_Frequency,Hit,StdDev 
1501376415.7,286047001.6,N,1.8
1501376435.6,286047002.5,N,1.8
1501376455.4,286047002.4,N,1.7
1501376475.2,286047002.7,N,1.7
1501376495.1,286046999.7,N,1.7
1501376496.0,286046999.7,N,1.7
1501376515.8,286047002.0,N,1.6
1501376535.7,286047002.7,N,1.6
1501376555.5,286047002.4,N,1.6
1501376575.3,286047002.3,N,1.6
1501376595.2,286047002.4,N,1.5
1501376615.0,286047002.6,N,1.5
1501376615.9,286047002.6,N,1.5
1501376635.8,286047004.3,N,1.6
1501376655.6,286047003.7,N,1.6
1501376675.4,286047002.9,N,1.6
1501376695.3,286047003.3,N,1.6
1501376715.1,286047003.2,N,1.6
1501376735.9,286047004.0,N,1.6
1501376755.7,286047004.2,N,1.6
1501376775.5,286047003.2,N,1.6
1501376795.4,286047003.3,N,1.6
1501376815.2,286047003.5,N,1.6
1501376835.0,286047003.2,N,1.6
1501376835.9,286047003.2,N,1.4
1501376855.8,286047005.3,P,1.4
1501376875.6,286047004.2,N,1.2
1501376895.5,286047004.4,P,1.0
1501376915.3,286047004.0,P,0.0
1501376935.1,286046998.5,P,2.6
1501376955.9,286046998.5,N,2.8
1501376975.7,286046999.0,N,2.6
1501376995.6,286046998.7,N,2.5
1501377015.4,286046998.8,N,2.4
1501377035.2,286046998.8,N,2.3
1501377055.1,286046999.4,N,2.2
1501377056.0,286046999.4,N,2.1
1501377075.8,286046999.4,N,2.0
1501377095.7,286046998.4,N,1.9
1501377115.5,286046998.6,N,1.9
1501377135.3,286046998.4,N,1.9
1501377155.2,286047000.6,N,1.8
1501377175.0,286046998.6,N,1.8
1501377175.9,286046998.6,P,0.5
1501377195.8,286047000.4,N,0.7
1501377215.6,286046998.6,N,0.8
1501377235.5,286046998.3,N,0.8
1501377255.3,286046998.2,N,0.8
1501377275.1,286046998.2,N,0.8
1501377295.9,286047001.1,N,1.0
1501377315.7,286046998.1,N,1.0
1501377335.5,286047000.9,N,1.1
1501377355.4,286046999.9,N,1.1
1501377375.2,286047002.4,N,1.4
1501377395.1,286046999.7,N,1.3
1501377396.0,286046999.7,N,1.3
1501377415.8,286047000.1,N,1.2
1501377435.6,286047002.7,N,1.4
1501377455.5,286047002.6,N,1.5
1501377475.3,286047000.0,N,1.5
1501377495.2,286047000.6,N,1.4
1501377515.0,286047000.3,N,1.4
1501377515.9,286047000.3,N,1.4
1501377535.7,286047000.5,N,1.3
1501377555.6,286047000.1,N,1.3
1501377575.4,286047002.4,N,1.4
1501377595.3,286047004.0,N,1.5
1501377615.1,286047003.9,N,1.7
1501377635.8,286047002.7,N,1.7
1501377655.7,286047002.8,N,1.7
1501377675.5,286047002.2,N,1.7
1501377695.4,286047001.9,N,1.7
1501377715.2,286047001.6,N,1.7
1501377735.0,286047001.6,N,1.6
1501377735.9,286047001.6,N,1.7
1501377755.8,286047002.1,N,1.6
1501377775.6,286047003.9,N,1.6
1501377795.5,286047003.8,N,1.6
1501377815.3,286047003.6,N,1.5
1501377835.1,286047004.0,N,1.6
1501377855.9,286047003.4,N,1.4
1501377875.7,286047003.5,N,1.5
1501377895.6,286047003.9,N,1.5
1501377915.4,286047003.4,N,1.5
1501377935.2,286047004.1,N,1.4
1501377955.1,286047003.9,N,1.4
1501377956.0,286047003.9,N,1.4
1501377975.8,286047004.1,P,0.8
1501377995.7,286047002.8,P,0.7
1501378015.5,286047001.1,N,1.1
1501378035.4,286046998.1,N,2.0
1501378055.2,286047000.4,P,0.7
1501378075.0,286046999.5,N,0.9
1501378075.9,286046999.5,N,0.9
1501378095.8,286046998.5,N,1.1
1501378115.6,286046998.4,N,1.1
1501378135.5,286046998.6,N,1.1
1501378155.3,286047001.1,N,1.2
1501378175.1,286046999.9,N,1.1
1501378195.9,286047000.4,N,1.1
1501378215.7,286047000.4,N,1.0
1501378235.6,286047000.6,N,1.0
1501378255.4,286047000.8,N,1.0
1501378275.2,286046999.1,N,1.0
1501378295.1,286046998.7,N,1.0
1501378296.0,286046998.7,N,1.0
1501378315.8,286046999.4,N,1.0
1501378335.7,286046998.4,N,1.0
1501378355.5,286047000.5,N,1.0
1501378375.3,286047000.7,N,1.0
1501378395.2,286046998.6,N,1.0
1501378415.0,286046998.3,N,1.0
1501378415.9,286046998.3,N,1.0
1501378435.8,286047000.7,N,1.0
1501378455.6,286047000.2,N,1.0
1501378475.4,286047000.6,N,1.0
1501378495.3,286047001.1,N,1.0
1501378515.1,286047000.8,N,1.0
1501378535.9,286047000.3,N,1.0
1501378555.7,286047000.4,N,1.0
1501378575.5,286047000.4,N,1.0
1501378595.4,286046998.6,N,1.0
1501378615.2,286046998.1,N,1.0
1501378635.0,286047000.9,N,1.0
1501378635.9,286047000.9,N,1.0
1501378655.8,286046999.9,N,1.0
1501378675.6,286047000.3,N,1.0
1501378695.5,286046999.9,N,0.9
1501378715.3,286047002.7,N,1.1
1501378735.1,286047002.2,N,1.1
1501378755.9,286047000.0,N,1.1
1501378775.7,286047000.0,N,1.1
1501378795.6,286047000.9,N,1.1
1501378815.4,286046998.1,N,1.2
1501378835.2,286047001.1,N,1.2
1501378855.1,286046998.5,N,1.2
1501378856.0,286046998.5,N,1.2
1501378875.8,286047000.8,N,1.2
1501378895.7,286047000.8,N,1.2
1501378915.5,286047000.0,N,1.2
1501378935.3,286047000.3,N,1.1
1501378955.2,286046999.8,N,1.1
1501378975.0,286047002.3,N,1.1
1501378975.9,286047002.3,P,1.0
1501378995.8,286047000.7,N,0.9
1501379015.6,286047000.6,N,0.8
1501379035.4,286047001.0,N,0.7
1501379055.3,286046999.8,N,0.8
1501379075.1,286047002.8,P,1.0
1501379095.9,286047002.4,N,0.9
1501379115.7,286046998.2,N,1.8
1501379135.5,286046998.6,N,1.9
1501379155.4,286046998.6,N,1.9
1501379175.2,286046998.1,N,1.9
1501379195.1,286047001.0,N,1.8
1501379196.0,286047001.0,N,1.7
1501379215.8,286047000.7,N,1.6
1501379235.6,286047000.8,N,1.6
1501379255.5,286046999.9,N,1.5
1501379275.3,286047000.9,N,1.5
1501379295.2,286047000.4,N,1.4
1501379315.9,286047000.8,N,1.4
1501379335.7,286047002.6,N,1.4
1501379355.6,286046999.9,N,1.4
1501379375.4,286047000.6,N,1.4
1501379395.2,286047000.9,N,1.3
1501379415.1,286046998.5,N,1.4
1501379416.0,286046998.5,N,1.4
1501379435.8,286047001.2,N,1.4
1501379455.7,286046999.0,N,1.4
1501379475.5,286047001.2,N,1.4
1501379495.3,286047000.8,N,1.3
1501379515.2,286046998.2,N,1.4
1501379535.0,286047001.1,N,1.3
1501379535.9,286047001.1,N,1.3
1501379555.8,286047001.2,N,1.3
1501379575.6,286046998.2,N,1.4
1501379595.4,286047000.6,N,1.4
1501379615.3,286046998.6,N,1.3
1501379635.1,286047000.7,N,1.2
1501379655.9,286047000.8,N,1.2
1501379675.7,286046998.8,N,1.2
1501379695.5,286046998.3,N,1.2
1501379715.4,286047001.1,N,1.1
1501379735.2,286047000.7,N,1.1
1501379755.1,286047000.7,N,1.1
1501379756.0,286047000.7,N,1.1
1501379775.8,286046998.4,N,1.2
1501379795.6,286047000.7,N,1.2
1501379815.5,286047001.1,N,1.2
1501379835.3,286047001.1,N,1.2
1501379855.2,286047000.8,N,1.2
1501379875.9,286047001.0,N,1.1
1501379895.7,286047000.1,N,1.1
1501379915.6,286047002.6,N,1.2
1501379935.4,286047000.2,N,1.2
1501379955.2,286047000.1,N,1.1
1501379975.1,286047000.2,N,1.1
1501379976.0,286047000.2,N,1.1
1501379995.8,286047000.0,N,1.1
